FW8186 Weather Reports


Display with metric or nautical units.
time (UTC)temp
F
wind
direction
speed
MPH
gust
MPH
rain 1hr
in
rain 24hr
in
rain mn
in
humidity
%
barometer
mb
20260506183003 61 10 10.0 13.0 0.00 0.00 0.00 48 1061.3
20260506182003 61 18 14.0 15.0 0.00 0.00 0.00 47 1061.0
20260506180503 61 79 6.0 17.0 0.00 0.00 0.00 47 1061.3
20260506175003 60 81 9.0 14.0 0.00 0.00 0.00 46 1061.6
20260506173503 59 87 8.0 17.0 0.00 0.00 0.00 47 1061.6
20260506172003 59 46 11.0 17.0 0.00 0.00 0.00 48 1061.6
20260506170503 58 50 7.0 16.0 0.00 0.00 0.00 50 1062.0
20260506165003 58 87 9.0 13.0 0.00 0.00 0.00 52 1062.0
20260506162003 56 66 11.0 17.0 0.00 0.00 0.00 55 1062.3
20260506160503 56 90 8.0 17.0 0.00 0.00 0.00 55 1062.3
20260506155003 55 79 14.0 15.0 0.00 0.00 0.00 58 1062.0
20260506153503 53 74 13.0 19.0 0.00 0.00 0.00 63 1061.6
20260506152003 52 26 11.0 19.0 0.00 0.00 0.00 65 1061.6
20260506150503 51 6 15.0 18.0 0.00 0.00 0.00 68 1061.6
20260506145003 51 42 22.0 22.0 0.00 0.00 0.00 69 1061.3
20260506144003 51 42 14.0 19.0 0.00 0.00 0.00 70 1061.3
20260506142503 51 25 9.0 14.0 0.00 0.00 0.00 69 1061.0
20260506141003 50 35 19.0 24.0 0.00 0.00 0.00 71 1061.3
20260506135503 49 54 14.0 17.0 0.00 0.00 0.00 73 1061.3
20260506134002 49 34 11.0 18.0 0.00 0.00 0.00 74 1061.3
20260506132503 49 38 18.0 21.0 0.00 0.00 0.00 74 1061.3
20260506131502 49 60 10.0 14.0 0.00 0.00 0.00 74 1061.3
20260506130003 48 41 13.0 18.0 0.00 0.00 0.00 76 1060.6
20260506124503 48 22 10.0 15.0 0.00 0.00 0.00 78 1060.6
20260506123003 48 326 10.0 16.0 0.00 0.00 0.00 78 1059.9
20260506121503 48 43 16.0 16.0 0.00 0.00 0.00 77 1059.9
20260506120003 48 33 8.0 14.0 0.00 0.00 0.00 77 1059.6
20260506114503 48 350 8.0 14.0 0.00 0.00 0.00 76 1059.6
20260506113003 48 42 13.0 14.0 0.00 0.00 0.00 76 1059.3
20260506111503 48 44 10.0 13.0 0.00 0.00 0.00 76 1059.3
20260506110002 48 38 6.0 13.0 0.00 0.00 0.00 75 1059.3
20260506104503 48 8 13.0 16.0 0.00 0.00 0.00 75 1059.6
20260506103003 49 25 14.0 16.0 0.00 0.00 0.00 74 1059.6
20260506101503 49 32 9.0 11.0 0.00 0.00 0.00 73 1059.6
20260506100003 49 357 10.0 10.0 0.00 0.00 0.00 72 1059.6
20260506093502 49 356 6.0 11.0 0.00 0.00 0.00 71 1058.6
20260506092003 49 8 10.0 12.0 0.00 0.00 0.00 71 1058.6
20260506090503 49 3 6.0 12.0 0.00 0.00 0.00 70 1058.6
20260506085503 49 40 13.0 19.0 0.00 0.00 0.00 70 1058.2
20260506084003 49 36 13.0 17.0 0.00 0.00 0.00 69 1058.2
20260506082503 49 359 8.0 15.0 0.00 0.00 0.00 69 1057.6
20260506081003 48 22 9.0 14.0 0.00 0.00 0.00 70 1057.2
20260506071003 49 46 7.0 10.0 0.00 0.00 0.00 68 1056.9
20260506062503 49 38 9.0 11.0 0.00 0.00 0.00 67 1056.9
20260506061502 49 35 8.0 12.0 0.00 0.00 0.00 67 1057.2
20260506044503 49 4 9.0 12.0 0.00 0.00 0.00 70 1056.9
20260506043003 49 12 10.0 13.0 0.00 0.00 0.00 71 1056.9
20260506041503 49 327 10.0 17.0 0.00 0.00 0.00 73 1056.9
20260506040003 49 39 16.0 16.0 0.00 0.00 0.00 74 1056.9
20260506033004 49 45 11.0 14.0 0.00 0.00 0.00 75 1056.2
20260506031502 49 55 13.0 20.0 0.00 0.00 0.00 77 1055.9
20260506030003 49 21 14.0 22.0 0.00 0.00 0.00 79 1055.5
20260506024503 49 20 12.0 21.0 0.00 0.00 0.00 80 1055.9
20260506023003 49 14 14.0 18.0 0.00 0.00 0.00 80 1055.5
20260506021503 49 37 14.0 20.0 0.00 0.00 0.00 78 1055.9
20260506020502 50 38 9.0 15.0 0.00 0.00 0.00 77 1055.5
20260506015003 50 57 14.0 15.0 0.00 0.00 0.00 76 1055.2
20260506014002 50 39 14.0 17.0 0.00 0.00 0.00 75 1054.9
20260506012503 50 32 9.0 14.0 0.00 0.00 0.00 75 1054.9
20260506011003 50 25 13.0 14.0 0.00 0.00 0.00 75 1054.9
20260506005502 50 12 13.0 16.0 0.00 0.00 0.00 75 1054.2
20260506002503 51 12 9.0 15.0 0.00 0.00 0.00 74 1053.8
20260506001002 51 18 10.0 15.0 0.00 0.00 0.00 72 1053.8
20260505234004 52 46 16.0 22.0 0.00 0.00 0.00 70 1053.5
20260505232503 52 43 10.0 18.0 0.00 0.00 0.00 70 1053.8
20260505231003 52 22 13.0 16.0 0.00 0.00 0.00 70 1053.5
20260505225503 52 9 14.0 23.0 0.00 0.00 0.00 71 1053.2
20260505224502 52 343 10.0 18.0 0.00 0.00 0.00 71 1053.5
20260505223003 53 338 10.0 14.0 0.00 0.00 0.00 70 1053.5
20260505221502 53 23 10.0 22.0 0.00 0.00 0.00 70 1053.2
20260505220003 54 23 9.0 18.0 0.00 0.00 0.00 69 1053.2
20260505214503 54 9 13.0 17.0 0.00 0.00 0.00 69 1053.2
20260505213003 54 46 15.0 16.0 0.00 0.00 0.00 70 1053.2
20260505211503 54 352 22.0 22.0 0.00 0.00 0.00 70 1052.5
20260505204503 55 14 14.0 20.0 0.00 0.00 0.00 70 1052.5
20260505201503 54 58 10.0 22.0 0.00 0.00 0.00 73 1052.2
20260505200004 54 1 22.0 22.0 0.00 0.00 0.00 75 1052.2
20260505194503 54 10 18.0 23.0 0.00 0.00 0.00 77 1052.2
20260505193003 54 11 17.0 21.0 0.00 0.00 0.00 76 1052.2
20260505191502 55 359 17.0 22.0 0.00 0.00 0.00 76 1051.8
20260505190004 56 16 11.0 21.0 0.00 0.00 0.00 76 1051.8
20260505184503 56 11 14.0 22.0 0.00 0.00 0.00 75 1051.8